Regional Weather Roundup
Issued by NWS Newport/Morehead, NC

Current Version | Previous Version | Text Only | Print | Product List | Glossary On
Versions: 1 2 3 4 5 6 7 8 9 10 11 12 13 14 15 16 17 18 19 20 21 22 23 24 25 26 27 28 29 30 31 32 33 34 35 36 37 38 39 40 41 42 43 44 45 46 47 48 49 50
000 ASUS42 KMHX 240525 RWRMHX WEATHER ROUNDUP FOR EASTERN NORTH CAROLINA NATIONAL WEATHER SERVICE NEWPORT/MOREHEAD CITY NC 100 AM EDT FRI MAR 24 2017 NOTE: "FAIR" INDICATES FEW OR NO CLOUDS BELOW 12,000 FEET WITH NO SIGNIFICANT WEATHER AND/OR OBSTRUCTIONS TO VISIBILITY NCZ015>017-031-032-045>047-102-103-240600- NORTH COAST CITY SKY/WX TMP DP RH WIND PRES REMARKS EDENTON CLEAR 35 31 84 E5 30.62R ELIZABETH CITY CLEAR 35 29 78 E6 30.62R KITTY HAWK NOT AVBL MANTEO CLEAR 35 29 78 E6 30.61R $$ NCZ045>047-081-094-103-104-240600- CENTRAL COAST CITY SKY/WX TMP DP RH WIND PRES REMARKS FRISCO CLEAR 43 33 68 NE6 30.58S $$ NCZ095-097-098-100-101-240600- SOUTHERN COAST CITY SKY/WX TMP DP RH WIND PRES REMARKS BEAUFORT CLEAR 39 32 76 NE6 30.56F CEDAR ISLAND NOT AVBL JACKSONVILLE CLEAR 39 31 72 E8 30.56F PINEY ISLAND CLEAR N/A N/A N/A NE8 30.57F WILMINGTON CLEAR 36 33 89 NE6 30.55S $$ NCZ011>013-027>030-043-044-078>080-089-090>093-098-240600- COASTAL PLAIN CITY SKY/WX TMP DP RH WIND PRES REMARKS AHOSKIE NOT AVBL CLINTON CLEAR 40 32 73 CALM 30.55F ELIZABETHTOWN CLEAR 40 33 77 CALM 30.54F GOLDSBORO CLEAR 37 34 87 E5 30.55F GREENVILLE CLEAR 34 30 86 E3 30.57S HAVELOCK CLEAR 38 31 76 E3 30.58F KENANSVILLE CLEAR 37 30 75 CALM 30.56F KINSTON CLEAR 38 32 77 SE3 30.58S NEW BERN CLEAR 38 31 76 E3 30.59S RICHLANDS CLEAR 36 30 79 NE6 30.56F ROCKY MOUNT CLEAR 39 32 76 SE6 30.56F WASHINGTON CLEAR 33 28 80 E3 30.59S WHITEVILLE CLEAR 40 33 78 CALM 30.53F $$ AMZ130-135-150-152-154-156-158-170-250-252-270-ANZ085-086-088-633-658-670-240600- MARINE OBSERVATIONS STATION/POSITION TIME TEMP WIND PRES WAVE SWELL AIR SEA DIR/SP/G HT/PER HT/PER (UTC) (F) (DEG/KT/KT) (MB) (FT/S) (FT/S) CHESAPEAKE LIGHT NOT AVBL 64 E VA BEACH 0450 43 48 70/ 6/ 8 1037.0 4/ 7 3/ 7 DUCK 0500 41 48 80/ 8/ 9 1036.1 2 E DUCK 0500 47 N/A 3/ 7 OREGON INLET 0500 42 49 30/ 7/ 9 1036.4 13E OREGON INLT NOT AVBL HATTERAS CG 0500 44 52 40/ 7/ 10 1034.9 DIAMOND BUOY 0450 53 71 40/ 10/ 16 1035.0 7/10 7/10 CAPE LOOKOUT 0500 44 20/ 12/ 15 1034.4 BEAUFORT LAB 0500 40 52 20/ 6/ 7 1034.0 30 SE NEW RVR IN 0508 56 80/ 12/ 16 1034.0 30 SE NEW RVR IN 0443 69 N/A 4/11 2/11 27 SE WRIGHTSVLE 0508 57 62 90/ 12/ 17 1032.7 5 SE WRIGHTSVLE 0508 52 56 70/ 12/ 19 1034.2 225 S CAPE HAT 0450 62 72 60/ 16/ 19 1032.3 6/ 8 5/ 8 41 SE CHARLESTON 0450 65 71 90/ 17/ 21 1030.8 6/ 7 3/10 $$

USA.gov is the U.S. government's official web portal to all federal, state and local government web resources and services.